392P/LINEAR (2020)

Japanese version
Home page
Updated on December 9, 2019

---------------------------------------------------------------------

* Profile

Designation 392P/2019 U3
Recovery Date October 26, 2019
Magnitude 19.2 mag
Recoverer K. Sarneczky (Konkoly Observatory)

* Pictures

* Orbital Elements

Epoch 2020 Mar. 12.0 TT = JDT 2458920.5                                         
T 2020 Mar. 31.85050 TT                                 Williams                
q   1.9502342            (2000.0)            P               Q                  
n   0.06461660     Peri.   71.99710     -0.11840385     -0.99230681             
a   6.1504467      Node    24.88832     +0.87543108     -0.12150679             
e   0.6829118      Incl.    4.92935     +0.46861600     -0.02373400             
P  15.3                                                                         
From 287 observations 2004 Nov. 22-2019 Oct. 27, mean residual 0".4.            

* Magnitudes Graph

        m1 = 14.5 + 5 log d + 10.0 log r

---------------------------------------------------------------------

The orbital elements are published on M.P.E.C. 2019-U245.
The magnitudes graphs are made with Comet for Windows.

---------------------------------------------------------------------

Copyright(C) Seiichi Yoshida (comet@aerith.net). All rights reserved.